Location: Musselshell
(46.5176°N, 108.0911°W)
Time: 20:39:28
(UTC+00:00)

PicSat - Pass Details

Date: 30 June 2022
Orbit: 446 x 455 km, 97.4° (Epoch: 13 August)

Event Time Altitude Azimuth Distance (km) Brightness Sun altitude
Exits shadow 06:07:22 25° 234° (SW) 973 ? -18.6°
Maximum altitude 06:08:19 29° 264° (W) 882 ? -18.6°
Drops below altitude 10° 06:11:22 10° 326° (NW) 1,618 ? -18.8°
Sets 06:13:37 0° 338° (NNW) 2,502 ? -18.9°
